Content
SEND FEEDBACK

Daily
Averages
Monthly
Summary
United States of America

MELROSE, MASSACHUSETTS


Home > North America > United States > Massachusetts
Elevation: 170 feet     Latitude: 42 27N     Longitude: 071 05W

WEATHER
 
SELECT A DAY
Number of Records: 207,234;   Date Range: 1/1/95 - 12/26/14
 
SHARE

PRINT THIS DATA

[ ← Previous Day ]
WEATHER ALMANAC - FEBRUARY 10, 2013
[ Next Day → ]
[ °C ]   °F
Weather ElementAverageHighLow
Temperature25.1 °F36 °F (1:54 pm)15.1 °F (1:54 am)
Dewpoint6.8 °F16 °F (11:54 pm) (7:00 pm)
Humidity46.9 %58 % (11:54 pm)27 % (1:54 pm)
Barometer30.34 in30.40 in (9:54 am)30.22 in (1:54 am)
Wind Speed8.1 mph19.6 mph (3:54 am)
Wind Gust25.3 mph (1:54 am)
Weather ElementAverage
Visibility10 mi
Wind DirectionWSW (242.2 °)

Weather ElementTotal
Precipitation---
Heating Degree Days39.5 (Base 65)
Averaged from 23 records on February 10, 2013
WEATHER CONDITIONS BREAKOUT
WIND DIRECTION BREAKOUT
WEATHER BY HOUR - FEBRUARY 10, 2013
[ °C ]   °F
Local TimeTemperatureDewpointHumidityBarometerVisibilityWind DirectionWind SpeedGust SpeedPrecipitationEventsConditions
1:54 AM15.1 °F1.9 °F56 %30.22 in10.0 miNW (310°)13.8 mph25.3 mphClear
2:54 AM16.0 °F1.9 °F54 %30.23 in10.0 miNW (320°)15.0 mphClear
3:54 AM16.0 °F1.9 °F54 %30.25 in10.0 miNW (310°)19.6 mphClear
4:54 AM16.0 °F1.0 °F52 %30.28 in10.0 miNW (310°)12.7 mphClear
5:54 AM15.1 °F0.0 °F51 %30.31 in10.0 miWNW (300°)11.5 mphPartly Cloudy
6:54 AM15.1 °F1.0 °F54 %30.33 in10.0 miNW (310°)11.5 mphPartly Cloudy
7:54 AM16.0 °F1.9 °F54 %30.36 in10.0 miNW (320°)8.1 mphPartly Cloudy
8:54 AM19.0 °F1.0 °F46 %30.38 in10.0 miNW (310°)8.1 mphPartly Cloudy
9:54 AM21.9 °F1.0 °F40 %30.40 in10.0 miWNW (300°)10.4 mphPartly Cloudy
10:54 AM25.0 °F8.1 °F49 %30.39 in10.0 miWNW (300°)8.1 mphPartly Cloudy
11:54 AM28.9 °F3.0 °F33 %30.38 in10.0 miNW (310°)9.2 mphPartly Cloudy
12:54 PM33.1 °F3.0 °F28 %30.37 in10.0 miNW (320°)6.9 mphPartly Cloudy
1:54 PM36.0 °F5.0 °F27 %30.34 in10.0 miCalmPartly Cloudy
2:54 PM32.0 °F15.1 °F50 %30.34 in10.0 miSE (140°)5.8 mphClear
3:54 PM33.1 °F15.1 °F48 %30.35 in10.0 miSSE (160°)3.5 mphPartly Cloudy
4:54 PM30.0 °F14.0 °F51 %30.35 in10.0 miSW (230°)5.8 mphScattered Clouds
5:54 PM35.1 °F7.0 °F31 %30.36 in10.0 miSW (230°)6.9 mphPartly Cloudy
6:54 PM30.9 °F10.9 °F43 %30.37 in10.0 miCalmClear
7:54 PM30.9 °F12.9 °F47 %30.36 in10.0 miSSW (210°)9.2 mphClear
8:54 PM28.9 °F10.0 °F45 %30.37 in10.0 miSSW (210°)5.8 mphClear
9:54 PM26.1 °F12.0 °F55 %30.36 in10.0 miSW (220°)5.8 mphClear
10:54 PM28.0 °F12.9 °F53 %30.37 in10.0 miSSW (210°)4.6 mphPartly Cloudy
11:54 PM28.9 °F16.0 °F58 %30.36 in10.0 miWSW (240°)3.5 mph0.00 inSnowLight Snow
Hourly data recorded from KBOS, located miles away from Melrose, Massachusetts







STORIES FROM OUR PARTNERS